This demonstration page uses our WeatherBlox Daily Observations layout. Learn more.

Hourly Observations for August 25, 2015

Temp ( °F °C ) Dew Point ( °F °C ) Humidity (%) Winds ( mph kmh ) Pressure ( in mb ) Visibility ( mi km ) Precip ( " mm )
12:15 am 00:15 Clear 58 14.7 47 8.6 67 67 SSE 5 7 30.09 1019 10 16.0934 0 0
12:35 am 00:35 Clear 57 13.7 48 8.7 72 72 SSE 5 7 30.09 1019 10 16.0934 0 0
12:55 am 00:55 Clear 57 14.1 47 8.5 69 69 SSE 5 7 30.09 1019 10 16.0934 0 0
1:15 am 01:15 Clear 57 13.8 47 8.5 71 71 S 6 9 30.09 1019 10 16.0934 0 0
1:35 am 01:35 Clear 57 14.1 47 8.5 69 69 S 5 7 30.09 1019 10 16.0934 0 0
1:55 am 01:55 Clear 57 14 47 8.3 69 69 S 5 7 30.09 1019 10 16.0934 0 0
2:15 am 02:15 Clear 56 13.1 47 8.6 74 74 S 3 6 30.12 1020 10 16.0934 0 0
2:35 am 02:35 Clear 56 13.6 47 8.6 72 72 Calm 30.09 1019 10 16.0934 0 0
2:55 am 02:55 Clear 56 13.2 48 8.7 74 74 S 5 7 30.12 1020 10 16.0934 0 0
3:15 am 03:15 Clear 56 13.6 47 8.6 72 72 SSW 6 9 30.09 1019 10 16.0934 0 0
3:35 am 03:35 Clear 57 13.9 47 8.3 69 69 SSW 6 9 30.09 1019 10 16.0934 0 0
3:55 am 03:55 Clear 57 13.7 47 8.2 70 70 S 5 7 30.09 1019 10 16.0934 0 0
4:15 am 04:15 Clear 57 14 46 8 67 67 SSW 5 7 30.09 1019 10 16.0934 0 0
4:35 am 04:35 Clear 57 14 47 8.1 68 68 SSW 5 7 30.09 1019 10 16.0934 0 0
4:55 am 04:55 Clear 56 13.5 47 8.2 71 71 SSW 3 6 30.09 1019 10 16.0934 0 0
5:15 am 05:15 Clear 57 13.8 47 8.3 70 70 SW 3 6 30.09 1019 10 16.0934 0 0
5:35 am 05:35 Clear 56 13.5 47 8.5 72 72 SW 5 7 30.09 1019 10 16.0934 0 0
5:55 am 05:55 Clear 56 13.3 47 8.6 73 73 Calm 30.12 1020 10 16.0934 0 0
6:15 am 06:15 Clear 57 13.7 48 8.7 72 72 Calm 30.09 1019 10 16.0934 0 0
6:35 am 06:35 Clear 51 10.5 47 8.6 88 88 NE 5 7 30.12 1020 10 16.0934 0 0
6:55 am 06:55 Clear 50 10.2 48 8.8 91 91 Calm 30.15 1021 10 16.0934 0 0
7:15 am 07:15 Sunny 50 10.2 48 8.8 91 91 Calm 30.15 1021 10 16.0934 0 0
7:35 am 07:35 Sunny 51 10.8 48 9.1 89 89 Calm 30.15 1021 10 16.0934 0 0
7:55 am 07:55 Sunny 54 12 50 9.8 87 87 Calm 30.15 1021 10 16.0934 0 0
8:15 am 08:15 Sunny 55 12.5 50 10.1 85 85 ESE 3 6 30.15 1021 10 16.0934 0 0
8:35 am 08:35 Sunny 56 13.5 51 10.5 82 82 ESE 6 9 30.18 1022 10 16.0934 0 0
8:55 am 08:55 Sunny 58 14.4 52 10.9 80 80 SE 3 6 30.18 1022 10 16.0934 0 0
9:15 am 09:15 Sunny 60 15.6 53 11.4 76 76 ESE 3 6 30.15 1021 10 16.0934 0 0
9:35 am 09:35 Sunny 62 16.7 53 11.8 73 73 ESE 3 6 30.15 1021 10 16.0934 0 0
9:55 am 09:55 Sunny 64 17.7 53 11.8 69 69 Calm 30.12 1020 10 16.0934 0 0
10:15 am 10:15 Sunny 66 18.9 54 12.1 65 65 Calm 30.12 1020 10 16.0934 0 0
10:35 am 10:35 Sunny 68 19.8 55 12.7 64 64 Calm 30.12 1020 10 16.0934 0 0
10:55 am 10:55 Sunny 69 20.3 55 12.9 63 63 SE 3 6 30.12 1020 10 16.0934 0 0
11:15 am 11:15 Sunny 71 21.4 56 13.6 61 61 ESE 3 6 30.12 1020 10 16.0934 0 0
11:35 am 11:35 Sunny 72 22.1 57 14 60 60 SSE 5 7 30.09 1019 10 16.0934 0 0
11:55 am 11:55 Sunny 73 23 58 14.4 59 59 ESE 5 7 30.06 1018 10 16.0934 0 0
12:15 pm 12:15 Sunny 74 23.3 58 14.6 58 58 Calm 30.06 1018 10 16.0934 0 0
12:35 pm 12:35 Sunny 76 24.5 58 14.6 54 54 S 7 11 30.03 1017 10 16.0934 0 0
12:55 pm 12:55 Sunny 77 25 59 15 54 54 ESE 6 9 30.03 1017 10 16.0934 0 0
1:15 pm 13:15 Sunny 78 25.6 59 14.8 51 51 SE 7 11 30.03 1017 10 16.0934 0 0
1:35 pm 13:35 Sunny 79 26 59 14.9 50 50 SE 7 11 30.03 1017 10 16.0934 0 0
1:55 pm 13:55 Sunny 80 26.7 59 14.9 48 48 SSE 9 15 30 1016 10 16.0934 0 0
2:15 pm 14:15 Sunny 80 26.7 58 14.6 47 47 S 6 9 30 1016 10 16.0934 0 0
2:35 pm 14:35 Sunny 82 27.5 58 14.3 44 44 SSE 9 15 30 1016 10 16.0934 0 0
2:55 pm 14:55 Sunny 82 27.9 57 13.9 42 42 SSE 7 11 30 1016 10 16.0934 0 0
3:15 pm 15:15 Sunny 82 27.9 57 14 43 43 SSE 9 15 30 1016 10 16.0934 0 0
3:35 pm 15:35 Sunny 83 28.1 57 13.9 42 42 SE 8 13 30 1016 10 16.0934 0 0
3:55 pm 15:55 Sunny 83 28.3 58 14.4 43 43 SSE 7 11 30 1016 10 16.0934 0 0
4:15 pm 16:15 Sunny 83 28.6 57 14 41 41 SE 7 11 29.97 1015 10 16.0934 0 0
4:35 pm 16:35 Sunny 83 28.5 57 14.1 41 41 SE 9 15 29.97 1015 10 16.0934 0 0
4:55 pm 16:55 Sunny 83 28.5 58 14.2 42 42 SSE 10 17 29.97 1015 10 16.0934 0 0
5:15 pm 17:15 Sunny 83 28.6 58 14.3 42 42 SSE 8 13 29.97 1015 10 16.0934 0 0
5:35 pm 17:35 Sunny 83 28.5 58 14.7 43 43 SSE 9 15 29.97 1015 10 16.0934 0 0
5:55 pm 17:55 Sunny 83 28.5 60 15.3 45 45 SSE 7 11 29.97 1015 10 16.0934 0 0
6:15 pm 18:15 Sunny 83 28.2 59 15.2 45 45 SE 8 13 29.94 1014 10 16.0934 0 0
6:35 pm 18:35 Sunny 82 28 60 15.8 47 47 SE 7 11 29.94 1014 10 16.0934 0 0
6:55 pm 18:55 Sunny 82 27.5 61 16.2 50 50 SE 6 9 29.94 1014 10 16.0934 0 0
7:15 pm 19:15 Sunny 80 26.7 62 16.7 54 54 SE 5 7 29.97 1015 10 16.0934 0 0
7:35 pm 19:35 Sunny 77 25.2 62 16.8 60 60 ESE 6 9 29.97 1015 10 16.0934 0 0
7:55 pm 19:55 Sunny 74 23.2 64 18 73 73 ESE 6 9 30 1016 10 16.0934 0 0
8:15 pm 20:15 Sunny 71 21.7 64 17.8 79 79 ESE 7 11 30 1016 10 16.0934 0 0
8:35 pm 20:35 Clear 69 20.5 63 17.2 81 81 ESE 8 13 30 1016 10 16.0934 0 0
8:55 pm 20:55 Clear 68 20.1 61 16.3 79 79 ESE 7 11 30.03 1017 10 16.0934 0 0
9:15 pm 21:15 Clear 66 18.9 61 15.9 83 83 ESE 7 11 30.06 1018 7 11.26538 0 0
9:35 pm 21:35 Clear 65 18.3 60 15.8 85 85 ESE 6 9 30.06 1018 10 16.0934 0 0
9:55 pm 21:55 Clear 65 18.4 60 15.5 83 83 ESE 7 11 30.06 1018 10 16.0934 0 0
10:15 pm 22:15 Clear 64 17.6 59 15 85 85 ESE 7 11 30.06 1018 10 16.0934 0 0
10:35 pm 22:35 Clear 64 17.6 58 14.5 82 82 ESE 7 11 30.06 1018 10 16.0934 0 0
10:55 pm 22:55 Clear 62 16.5 57 14.1 86 86 ESE 7 11 30.09 1019 10 16.0934 0 0
11:15 pm 23:15 Clear 63 17.1 58 14.4 84 84 ESE 7 11 30.09 1019 10 16.0934 0 0
11:35 pm 23:35 Clear 61 16 56 13.5 85 85 ESE 6 9 30.09 1019 10 16.0934 0 0
11:55 pm 23:55 Clear 60 15.7 56 13.5 87 87 ESE 7 11 30.09 1019 10 16.0934 0 0

Powered by AerisWeather